www.pogodaiklimat.ru

Погода и климат >> Архив погоды >> Австрия >> Рид-им-Иннкрайс


ПОГОДА в Рид-им-Иннкрайсе

  • Прогноз погоды в Рид-им-Иннкрайсе
  • Монитор погоды в Рид-им-Иннкрайсе

АРХИВ ПОГОДЫ в Рид-им-Иннкрайсе

Время (UTC), дата Ветер
(напр.,м/с)
 
Видим.   Явления Облачность Т
(С)
Тd
(С)
f
(%)
Тe
(С)
Тes
(С)
Комфортность P
(гПа)
Po
(гПа)
Тmin
(С)
Tmax
(С)
R
(мм)
R24
(мм)
S
(см)
01 17.08 штиль 0 н/о н/о +11.3 +9.7 90 +11 +11 1016.9 966.3
02 17.08 штиль 0 н/о н/о +10.7 +9.4 92 +10 +10 1017.0 966.3
03 17.08 штиль 0 н/о н/о +9.9 +8.8 93 +9 +9 1017.1 966.2
04 17.08 штиль 0 н/о н/о +10.0 +8.7 92 +9 +9 1017.3 966.4
05 17.08 штиль 0 н/о н/о +11.0 +9.5 90 +10 +10 1017.1 966.4
06 17.08 штиль 0 40 км 9/0
[Ac As]
+13.0 +10.7 86 +13 +14 1016.8 966.5 +9.8 +19.8
07 17.08 штиль 0 н/о н/о +15.4 +12.0 80 +15 +15 1016.3 966.5
08 17.08 штиль 0 н/о н/о +19.0 +11.8 63 +20 +20 1015.8 966.6
09 17.08 штиль 0 40 км 8/0
[Ac As]
+20.5 +12.0 58 +22 +29 комфорт 1015.5 966.5
10 17.08 СЗ 1 н/о н/о +21.9 +12.7 56 +24 +24 комфорт 1014.9 966.2
11 17.08 штиль 0 н/о н/о +23.4 +13.2 53 +27 +27 душно 1014.3 965.9
12 17.08 штиль 0 30 км 9/0
[Ac lent Cs]
+24.6 +13.3 49 +27 +38 жарко 1013.9 965.7
13 17.08 З 1 н/о н/о +25.4 +12.2 44 +27 +27 жарко 1013.4 965.3
14 17.08 З 1 н/о н/о +25.1 +12.3 45 +27 +27 жарко 1013.2 965.1
15 17.08 З 1 н/о н/о +25.3 +13.6 48 +27 +27 жарко 1012.7 964.7
16 17.08 штиль 0 н/о н/о +24.6 +13.0 48 +27 +27 жарко 1012.5 964.4 0.0
17 17.08 В 1 н/о н/о +23.7 +15.2 59 +27 +27 жарко 1012.6 964.3
18 17.08 штиль 0 40 км 10/0
[Ac As]
+23.0 +15.4 62 +27 +27 душно 1012.6 964.2 +12.6 +25.8 0.0
19 17.08 ЮВ 1 н/о н/о +22.1 +15.5 66 +26 +26 душно 1012.8 964.3
20 17.08 Ю 1 н/о н/о +21.5 +14.9 66 +25 +25 комфорт 1013.1 964.5 0.0
21 17.08 штиль 0 н/о н/о +20.6 +14.7 69 +23 +23 комфорт 1013.0 964.2 0.0
22 17.08 З 1 н/о н/о +21.3 +12.2 56 +23 +23 комфорт 1013.2 964.5
23 17.08 ЮЗ 1 н/о н/о +20.5 +12.8 61 +24 +24 комфорт 1013.4 964.6 0.0
00 18.08 Ю 1 н/о н/о +20.1 +12.9 63 +23 +23 комфорт 1013.5 964.6 0.0
01 18.08 штиль 0 н/о н/о +18.7 +13.8 73 +19 +19 1013.6 964.5
02 18.08 штиль 0 н/о н/о +18.6 +14.2 76 +19 +19 1013.2 964.1
03 18.08 штиль 0 н/о н/о +17.1 +14.0 82 +17 +17 1012.6 963.3
04 18.08 Ю 1 н/о н/о +16.7 +13.9 84 +18 +18 1012.4 963.0
05 18.08 штиль 0 н/о н/о +16.4 +13.7 84 +16 +16 1012.3 962.9
06 18.08 штиль 0 н/о н/о +18.3 +14.0 76 +19 +19 1012.1 963.0 +16.4 +23.2 0.0
07 18.08 С 1 н/о н/о +21.7 +14.1 62 +25 +25 комфорт 1011.6 963.1
08 18.08 С 1 н/о н/о +24.6 +14.7 54 +27 +27 жарко 1011.4 963.3
09 18.08 С 1 30 км 1/0
[Ac trans]
+26.0 +15.4 52 +29 +41 душно 1011.1 963.3
10 18.08 СЗ 2 н/о н/о +28.1 +13.6 41 +30 +30 жарко 1010.7 963.2
11 18.08 штиль 0 н/о н/о +29.7 +13.5 37 +31 +31 жарко 1010.1 962.9
12 18.08 З 1 н/о н/о +30.6 +12.7 33 +31 +31 жарко 1009.7 962.6
13 18.08 СЗ 1 н/о н/о +31.3 +13.2 33 +32 +32 жарко 1009.3 962.3
14 18.08 В 1 н/о н/о +31.4 +12.3 31 +32 +32 жарко 1008.9 962.0
15 18.08 СВ 1 н/о н/о +31.8 +12.0 30 +32 +32 жарко 1008.4 961.5
16 18.08 штиль 0 н/о н/о +31.8 +13.7 33 +33 +33 жарко 1008.4 961.6
17 18.08 штиль 0 н/о н/о +30.9 +14.4 37 +33 +33 душно 1008.4 961.4
18 18.08 В 1 н/о н/о +28.9 +15.6 44 +32 +32 душно 1008.3 961.1 +17.9 +32.2
19 18.08 Ю 1 н/о н/о +27.0 +16.1 51 +30 +30 душно 1008.5 961.0
20 18.08 Ю 1 н/о н/о +24.6 +15.3 56 +28 +28 душно 1008.9 961.0
21 18.08 З 1 н/о н/о +23.2 +15.5 62 +27 +27 душно 1009.4 961.2
22 18.08 ЮВ 2 н/о н/о +25.0 +13.7 49 +27 +27 жарко 1008.7 960.8
23 18.08 С 1 н/о н/о +22.1 +14.6 62 +25 +25 комфорт 1009.6 961.2
00 19.08 штиль 0 н/о н/о +21.9 +14.5 63 +25 +25 комфорт 1010.7 962.2
01 19.08 ЮЗ 1 н/о н/о +20.3 +15.1 72 +24 +24 комфорт 1012.2 963.4
02 19.08 ЮЗ 1 н/о н/о +21.7 +14.7 64 +25 +25 комфорт 1013.8 965.2
03 19.08 З 2 н/о н/о +21.4 +14.4 64 +24 +24 комфорт 1016.2 967.4
04 19.08 З 1 н/о н/о +20.1 +13.9 67 +23 +23 комфорт 1017.5 968.4
05 19.08 ЮЗ 1 н/о н/о +19.2 +14.3 73 +22 +22 комфорт 1017.4 968.2
06 19.08 ЮЗ 1 45 км 9/0
[Ac As]
+19.7 +15.1 75 +23 +24 комфорт 1017.5 968.4 +19.2 +29.2 0.0
07 19.08 ЮЗ 1 н/о н/о +20.6 +14.9 70 +25 +25 комфорт 1017.5 968.5
08 19.08 ЮВ 1 н/о н/о +22.3 +14.3 61 +26 +26 жарко 1016.8 968.1
09 19.08 З 1 н/о н/о +22.9 +14.3 58 +26 +26 жарко 1017.2 968.6
10 19.08 З 1 н/о н/о +23.5 +13.7 54 +26 +26 жарко 1017.3 968.8
11 19.08 СЗ 1 н/о н/о +23.3 +14.6 58 +27 +27 душно 1017.1 968.6
12 19.08 СЗ 1 30 км 9/0
[Ac As]
+23.0 +14.9 60 +27 +33 душно 1017.1 968.5
13 19.08 З 1 н/о в посл. час осадки н/о +23.2 +15.1 60 +27 +27 душно 1017.7 969.1 0.0
14 19.08 ЮЗ 1 н/о н/о +23.7 +14.6 57 +26 +26 жарко 1017.3 968.8
15 19.08 З 1 н/о {осадки} н/о +23.7 +14.8 57 +26 +26 жарко 1017.2 968.7 0.0
16 19.08 СЗ 1 н/о н/о +23.6 +14.2 56 +26 +26 жарко 1016.9 968.4
17 19.08 штиль 0 н/о н/о +23.6 +14.9 58 +26 +26 жарко 1017.1 968.6
18 19.08 штиль 0 40 км {осадки} 1/0
[Ac trans]
+22.4 +14.7 62 +26 +26 жарко 1017.3 968.6 +19.6 +24.0 0.0
19 19.08 штиль 0 н/о н/о +19.9 +15.2 74 +22 +22 комфорт 1018.3 969.2
20 19.08 ЮЗ 1 н/о н/о +18.4 +15.3 82 +20 +20 1019.2 969.8
21 19.08 штиль 0 н/о н/о +18.2 +15.3 83 +18 +18 1019.3 969.8
22 19.08 штиль 0 н/о н/о +17.6 +15.2 86 +18 +18 1019.5 969.9
23 19.08 штиль 0 н/о н/о +17.5 +15.3 87 +17 +17 1019.7 970.1
00 20.08 штиль 0 н/о н/о +17.0 +14.9 87 +17 +17 1019.5 969.8
01 20.08 штиль 0 н/о н/о +17.3 +15.0 86 +17 +17 1019.2 969.6
02 20.08 штиль 0 н/о н/о +17.2 +15.0 87 +17 +17 1019.5 969.9 0.0
03 20.08 штиль 0 н/о н/о +17.3 +15.2 87 +17 +17 1020.4 970.7 0.0
04 20.08 штиль 0 н/о н/о +16.9 +15.0 89 +17 +17 1020.4 970.7
05 20.08 ЮВ 2 н/о н/о +17.7 +15.3 86 +18 +18 1020.0 970.4
06 20.08 ЮВ 1 30 км 8/0
[Ac As]
+19.1 +15.8 81 +22 +23 комфорт 1019.3 970.0 +16.7 +22.8 0.0
07 20.08 штиль 0 н/о н/о +19.8 +16.0 79 +22 +22 комфорт 1019.3 970.1
08 20.08 С 1 н/о н/о +19.8 +16.5 81 +23 +23 комфорт 1019.5 970.3 0.0
09 20.08 С 1 н/о н/о +22.7 +16.6 68 +27 +27 душно 1019.0 970.3 0.0
10 20.08 штиль 0 н/о н/о +23.2 +15.5 62 +27 +27 душно 1018.5 969.9
11 20.08 С 1 н/о н/о +24.0 +15.6 59 +27 +27 жарко 1018.2 969.7
12 20.08 СЗ 1 30 км 10/0
[Ac As Cs]
+22.9 +16.2 66 +27 +34 душно 1018.3 969.7 0.0
13 20.08 СЗ 1 н/о осадки н/о +22.2 +16.9 72 +27 +27 душно 1018.0 969.3 0.0
14 20.08 СЗ 1 н/о н/о +22.7 +17.5 72 +28 +28 душно 1017.8 969.2 0.0
15 20.08 СЗ 2 н/о {осадки} н/о +22.2 +16.8 71 +27 +27 душно 1017.7 969.0 0.0
16 20.08 СЗ 2 н/о н/о +21.9 +17.3 75 +26 +26 душно 1017.7 969.0
17 20.08 З 1 н/о н/о +21.0 +16.1 74 +26 +26 душно 1018.2 969.3
18 20.08 СЗ 1 30 км {осадки} 10/0
[As op]
+20.3 +16.2 77 +24 +24 комфорт 1018.7 969.6 +18.8 +24.1 0.0
19 20.08 СЗ 1 н/о осадки н/о +18.6 +16.5 88 +21 +21 комфорт 1019.8 970.4 0.3
20 20.08 З 2 н/о н/о +17.5 +16.5 94 +18 +18 1021.6 971.9 11
21 20.08 ЮЗ 1 н/о в посл. час осадки н/о +15.9 +14.8 93 +17 +17 1023.1 973.1 11
22 20.08 З 1 н/о осадки н/о +15.6 +14.5 93 +16 +16 1023.9 973.8 0.0
23 20.08 ЮЗ 2 н/о осадки н/о +14.7 +13.9 95 +14 +14 1025.7 975.3 0.7
00 21.08 З 2 н/о осадки {ливн. осадки} н/о +14.3 +13.5 95 +14 +14 1026.2 975.7 14
01 21.08 З 1 н/о осадки н/о +14.2 +13.4 95 +14 +14 1027.2 976.6 0.5
02 21.08 З 1 н/о ливневой дождь н/о +14.1 +13.3 95 +14 +14 1027.6 977.0 0.6
03 21.08 З 1 н/о осадки {ливн. осадки} н/о +14.0 +13.2 95 +14 +14 1027.6 977.0 2
04 21.08 З 1 н/о осадки н/о +13.9 +13.1 95 +14 +14 1028.5 977.8 1
05 21.08 З 1 н/о осадки н/о +13.7 +13.0 96 +14 +14 1028.5 977.8 4
06 21.08 ЮЗ 1 4000 м слаб. дождь 10/10 600 м
[Frnb]
+13.8 +13.1 96 +14 +14 1029.1 978.4 +13.6 +20.4 22
07 21.08 З 1 н/о осадки н/о +14.0 +13.1 94 +14 +14 1029.3 978.6 0.5
08 21.08 СЗ 1 н/о осадки н/о +14.1 +13.0 93 +14 +14 1029.2 978.5 0.7
09 21.08 штиль 0 4000 м в посл. час дождь 10/10 750 м
[St]
+15.4 +13.2 87 +15 +15 1028.9 978.5 1
10 21.08 С 1 н/о н/о +16.3 +12.5 78 +17 +17 1028.8 978.5
11 21.08 В 1 н/о н/о +17.2 +12.9 76 +18 +18 1028.1 978.0
12 21.08 В 2 н/о {осадки} н/о +18.3 +12.8 70 +19 +19 1027.8 977.9 1
13 21.08 В 1 н/о н/о +18.4 +12.9 70 +20 +20 1027.5 977.6
14 21.08 В 1 н/о н/о +19.0 +12.4 66 +21 +21 комфорт 1027.3 977.5
15 21.08 В 1 н/о н/о +19.1 +11.8 63 +21 +21 комфорт 1027.1 977.3
16 21.08 В 1 н/о н/о +18.9 +11.1 61 +21 +21 комфорт 1027.1 977.3
17 21.08 В 1 н/о н/о +18.1 +10.9 63 +19 +19 1026.9 977.0
18 21.08 В 1 45 км 1/1
[Sc]
+16.9 +11.2 69 +18 +18 1027.2 977.1 +13.7 +19.6 1
19 21.08 штиль 0 н/о н/о +15.8 +11.4 75 +16 +16 1027.4 977.1
20 21.08 штиль 0 н/о н/о +14.5 +11.9 84 +14 +14 1028.0 977.4
21 21.08 штиль 0 н/о н/о +13.7 +11.5 87 +13 +13 1027.8 977.1
22 21.08 штиль 0 н/о н/о +12.9 +11.3 90 +12 +12 1027.7 976.9
23 21.08 штиль 0 н/о н/о +12.3 +11.1 92 +12 +12 1027.9 976.9
00 22.08 штиль 0 н/о н/о +12.3 +11.1 92 +12 +12 1027.2 976.3
01 22.08 штиль 0 н/о н/о +13.1 +11.7 91 +13 +13 1026.3 975.6
02 22.08 штиль 0 н/о н/о +13.2 +11.7 91 +13 +13 1026.3 975.6
03 22.08 штиль 0 н/о н/о +13.2 +11.8 91 +13 +13 1026.1 975.4
04 22.08 штиль 0 н/о н/о +13.3 +11.6 89 +13 +13 1025.8 975.1
05 22.08 В 1 н/о н/о +13.7 +11.3 85 +14 +14 1025.4 974.8
06 22.08 В 1 25 км 6/0
[Ac trans Ci fib]
+14.7 +11.7 82 +15 +17 1025.7 975.3 +12.0 +17.0
07 22.08 В 1 н/о н/о +17.2 +12.1 72 +18 +18 1025.1 975.1
08 22.08 В 1 н/о н/о +18.5 +12.3 67 +20 +20 1024.9 975.2
09 22.08 В 1 25 км 8/8 2000 м
[Sc]
+17.9 +11.8 67 +19 +22 1025.3 975.4
10 22.08 В 1 н/о н/о +18.1 +11.7 66 +19 +19 1025.2 975.4
11 22.08 В 1 н/о н/о +19.0 +12.1 64 +21 +21 комфорт 1025.1 975.4
12 22.08 В 1 25 км 9/8 2000 м
[Sc Ac trans]
+19.1 +12.5 66 +21 +23 комфорт 1024.8 975.2
13 22.08 ЮВ 1 н/о н/о +21.0 +13.1 61 +25 +25 комфорт 1024.2 974.9
14 22.08 СВ 1 н/о н/о +20.8 +13.2 62 +24 +24 комфорт 1024.0 974.7
15 22.08 ЮВ 1 н/о н/о +21.1 +13.4 61 +23 +23 комфорт 1023.8 974.6
16 22.08 ЮВ 2 н/о н/о +20.6 +13.6 64 +24 +24 комфорт 1023.7 974.4
17 22.08 ЮВ 1 н/о н/о +20.2 +13.4 65 +23 +23 комфорт 1023.8 974.4
18 22.08 штиль 0 25 км ясно +19.3 +13.9 71 +21 +21 комфорт 1024.2 974.7 +14.3 +21.2
19 22.08 штиль 0 н/о н/о +17.2 +14.1 82 +17 +17 1025.7 975.7
20 22.08 Ю 1 н/о н/о +15.9 +13.8 87 +17 +17 1026.1 975.9
21 22.08 штиль 0 н/о н/о +15.8 +13.7 87 +16 +16 1026.0 975.8
22 22.08 штиль 0 н/о н/о +16.2 +13.8 86 +16 +16 1025.8 975.7
23 22.08 штиль 0 н/о н/о +16.5 +14.0 85 +16 +16 1025.8 975.7
00 23.08 штиль 0 н/о н/о +16.4 +14.4 88 +16 +16 1025.5 975.4
01 23.08 штиль 0 н/о н/о +16.3 +14.3 88 +16 +16 1025.5 975.4
02 23.08 штиль 0 н/о н/о +16.2 +14.5 90 +16 +16 1025.5 975.4
03 23.08 штиль 0 н/о н/о +16.3 +14.7 90 +16 +16 1025.4 975.3
04 23.08 штиль 0 н/о н/о +16.2 +14.6 90 +16 +16 1025.3 975.2
05 23.08 штиль 0 н/о н/о +16.4 +14.7 90 +16 +16 1025.5 975.4
06 23.08 штиль 0 15 км 10/0
[Ac As]
+17.2 +15.1 87 +17 +18 1025.4 975.5 +15.6 +19.7
07 23.08 штиль 0 н/о н/о +18.4 +14.7 79 +19 +19 1025.2 975.5
08 23.08 В 1 н/о н/о +18.8 +14.5 76 +21 +21 комфорт 1025.5 975.8
09 23.08 В 1 н/о н/о +19.8 +14.6 72 +23 +23 комфорт 1025.0 975.5
10 23.08 В 1 н/о н/о +21.0 +14.4 66 +25 +25 комфорт 1024.6 975.3
11 23.08 СВ 1 н/о н/о +22.7 +14.6 60 +26 +26 жарко 1023.9 974.9 0.0
12 23.08 В 1 20 км 6/4 2000 м
[Cu hum Ci fib]
+23.3 +14.7 58 +27 +36 душно 1023.6 974.7 0.0
13 23.08 штиль 0 н/о н/о +23.7 +15.2 59 +27 +27 жарко 1023.1 974.3
14 23.08 В 1 н/о н/о +23.8 +15.1 58 +27 +27 жарко 1022.3 973.6
15 23.08 В 1 н/о н/о +24.0 +15.4 59 +27 +27 жарко 1021.9 973.3
16 23.08 В 1 н/о н/о +24.2 +15.6 59 +27 +27 жарко 1021.3 972.7
17 23.08 штиль 0 н/о н/о +23.8 +15.8 61 +27 +27 жарко 1021.1 972.5
18 23.08 штиль 0 н/о н/о +22.5 +16.4 68 +27 +27 душно 1021.4 972.6 +17.0 +24.4 0.0
19 23.08 штиль 0 н/о н/о +20.2 +16.8 81 +23 +23 комфорт 1022.4 973.1
20 23.08 штиль 0 н/о н/о +19.0 +16.5 85 +20 +20 1022.5 973.0
21 23.08 штиль 0 н/о н/о +18.0 +16.1 89 +18 +18 1022.2 972.6
22 23.08 штиль 0 н/о н/о +17.3 +15.6 90 +17 +17 1022.0 972.3
23 23.08 штиль 0 н/о н/о +16.6 +15.2 91 +16 +16 1021.7 971.9
00 24.08 ЮЗ 1 н/о н/о +16.3 +14.9 91 +17 +17 1021.4 971.5
01 24.08 штиль 0 н/о н/о +15.7 +14.6 93 +15 +15 1021.3 971.3

 

Местоположение метеостанции Рид-им-Иннкрайс (Австрия): широта 48.22 долгота 13.48 высота над уровнем моря 431 м.

В архиве по умолчанию представлена погода в Рид-им-Иннкрайсе за последнюю неделю. Архивные данные за месяц целиком и за предыдущие месяцы, начиная с января 2011 года, Вы можете получить, выбрав интересующий диапазон дат из раскрывающегося списка и нажав кнопку "Ввод!".


*Определитесь, кто Вы:
робот инопланетянин человек

Внимание! Время в таблицах - всемирное. Для получения местного времени необходимо прибавить поправку, которая равна 1 ч.

Смотрите также архив погоды в соседних городах и на ближайших метеорологических станциях:

Погода в Вольфсегг-ам-Хаусрукке (Австрия) (19 км)
Погода в Франкенмаркте (Австрия) (26 км)
Погода в Шердинге (Австрия) (28 км)
Погода в Рансхофене (Австрия) (33 км)
Погода в Фюрстенцелле (Германия) (38 км)
Погода в Маттзе (Австрия) (39 км)
Погода в Мондзе (Австрия) (42 км)
Погода в Гмундене (Австрия) (43 км)
Погода в Вельс / Шлайсхайм (Австрия) (44 км)
Погода в Фойеркогеле (Австрия) (48 км)

Пояснения к столбцам:

Ветер - указаны скорость ветра в м/с - средняя за 10 мин, порывы в срок и между сроками (в фигурных скобках) и направление, откуда дует ветер: С - северный, СВ - северо-восточный, В - восточный, ЮВ - юго-восточный, Ю - южный, ЮЗ - юго-западный, З - западный, СЗ - северо-западный.
Видимость - горизонтальная дальность видимости в метрах или километрах. При видимости от 1 до 10 км при отсутствии осадков обычно наблюдается дымка, при ухудшении видимости до 1 км и менее - туман. В сухую погоду видимость может ухудшаться дымом, пылью или мглою.
Явления - указаны атмосферные явления, наблюдавшиеся в срок или в последний час перед сроком; фигурными скобками обозначены явления, наблюдавшиеся между сроками (за 1-3 часа до срока); квадратными скобками обозначены град или гололедные отложения с указанием их диаметра в мм.
Облачность - указаны через наклонную черту общая и нижняя облачность в баллах и высота нижней границы облаков в метрах; квадратными скобками обозначены формы облаков: Ci - перистые, Cs - перисто-слоистые, Cc - перисто-кучевые, Ac - высококучевые, As - высокослоистые, Sc - слоисто-кучевые, Ns - слоисто-дождевые, Cu - кучевые, Cb - кучево-дождевые. Подробнее классификацию облаков см. в Атласе облаков (PDF).
T - Температура воздуха - температура, измеренная на высоте 2 м над землей.
Td - Температура точки росы - температура, при понижении до которой содержащийся в воздухе водяной пар достигнет насыщения.
f - Относительная влажность воздуха - влажноcть воздуха, измеренная на высоте 2 м над землей.
Te - Эффективная температура - температура, которую ощущает одетый по сезону человек в тени. Характеристика душности погоды. При расчете учитывается влияние влажности воздуха и скорости ветра на теплоощущения человека.
Tes - Эффективная температура на солнце - температура, которую ощущает человек, с поправкой на солнечный нагрев. Характеристика знойности погоды. Зависит от высоты солнца над горизонтом, облачности и скорости ветра. Ночью, в пасмурную погоду, а также при ветре 12 м/с и более поправка равна нулю.
P - Атмосферное давление - приведенное к уровню моря атмосферное давление.
Po - Атмосферное давление - измеренное на уровне метеостанции атмосферное давление.
Tmin - Минимальная температура - минимум температуры воздуха на высоте 2 м над землей.
Tmax - Максимальная температура - максимум температуры воздуха на высоте 2 м над землей.
R - Количество осадков - Количество выпавших осадков за период времени, мм. При наведении курсора мыши на число - период времени, за который выпало указанное количество осадков.
R24 - Количество осадков - Количество выпавших осадков за 24 часа, мм.
S - Снежный покров - Высота снежного покрова, см. При наведении курсора мыши на число - состояние снежного покрова и степень покрытия местности в баллах.